Tracking 26492 objects as of 8-Dec-2022
HD Live streaming from Space Station
objects crossing your sky now

STARLINK-4577

Track STARLINK-4577 now!
10-day predictions
STARLINK-4577 is classified as:


NORAD ID: 53564
Int'l Code: 2022-101AP
Perigee: 545.6 km
Apogee: 548.2 km
Inclination: 53.2 °
Period: 95.4 minutes
Semi major axis: 6917 km
RCS: Unknown
Launch date: August 19, 2022
Source: United States (US)
Launch site: AIR FORCE EASTERN TEST RANGE (AFETR)
aabbcc
Your satellite tracking list
Your tracking list is empty




NASA's NSSDC Master Catalog

Two Line Element Set (TLE):
1 53564U 22101AP  22341.73625869 -.00000625  00000-0 -21188-4 0  9996
2 53564  53.2172 347.1071 0001929  50.9619 309.1544 15.08837190 17106
Source of the keplerian elements: AFSPC